CW8209 Weather Reports


time (UTC)temp
C
wind
direction
speed
KPH
gust
KPH
rain 1hr
cm
rain 24hr
cm
rain mn
cm
humidity
%
barometer
mb
20260506160834 2 19 12.9 19.3 0.00 0.00 0.00 73 1012.1
20260506160339 2 15 11.3 17.7 0.00 0.00 0.00 74 1012.1
20260506155828 2 15 11.3 16.1 0.00 0.00 0.00 76 1012.0
20260506155337 2 201 9.7 16.1 0.00 0.00 0.00 77 1011.9
20260506154837 2 360 11.3 17.7 0.00 0.00 0.00 77 1011.9
20260506154341 2 360 12.9 22.5 0.00 0.00 0.00 76 1011.9
20260506153859 3 360 12.9 22.5 0.00 0.00 0.00 75 1011.8
20260506153342 3 360 14.5 22.5 0.00 0.00 0.00 76 1011.8
20260506152839 3 360 14.5 20.9 0.00 0.00 0.00 78 1011.7
20260506152342 3 360 14.5 20.9 0.00 0.00 0.00 77 1011.8
20260506151840 3 360 14.5 22.5 0.00 0.00 0.00 76 1011.8
20260506151403 3 360 14.5 22.5 0.00 0.00 0.00 77 1011.6
20260506150838 3 360 14.5 22.5 0.00 0.00 0.00 77 1011.4
20260506150341 3 26 16.1 24.1 0.00 0.00 0.00 75 1011.4
20260506145840 3 360 16.1 24.1 0.00 0.00 0.00 74 1011.4
20260506145343 3 360 12.9 24.1 0.00 0.00 0.00 77 1011.3
20260506144859 3 360 16.1 24.1 0.00 0.00 0.00 76 1011.2
20260506144341 3 360 16.1 20.9 0.00 0.00 0.00 75 1011.2
20260506143839 3 360 12.9 22.5 0.00 0.00 0.00 74 1011.1
20260506143327 3 360 17.7 24.1 0.00 0.00 0.00 72 1011.0
20260506142826 3 15 16.1 19.3 0.00 0.00 0.00 73 1011.0
20260506142329 3 28 9.7 19.3 0.00 0.00 0.00 73 1010.9
20260506141829 3 360 14.5 20.9 0.00 0.00 0.00 72 1010.8
20260506141332 3 360 12.9 20.9 0.00 0.00 0.00 70 1010.8
20260506140831 3 20 12.9 20.9 0.00 0.00 0.00 71 1010.7
20260506140334 3 24 12.9 22.5 0.00 0.00 0.00 71 1010.7
20260506135832 3 360 16.1 22.5 0.00 0.00 0.00 71 1010.7
20260506135335 3 16 12.9 25.7 0.00 0.00 0.00 72 1010.7
20260506134834 3 10 16.1 25.7 0.00 0.00 0.00 75 1010.5
20260506134338 3 198 16.1 22.5 0.00 0.00 0.00 78 1010.5
20260506133836 3 13 14.5 22.5 0.00 0.00 0.00 76 1010.5
20260506133359 3 12 17.7 22.5 0.00 0.00 0.00 76 1010.5
20260506132841 3 360 14.5 24.1 0.00 0.00 0.00 76 1010.4
20260506132343 3 19 14.5 20.9 0.00 0.00 0.00 75 1010.4
20260506131841 4 10 12.9 17.7 0.00 0.00 0.00 77 1010.3
20260506131343 3 17 12.9 19.3 0.00 0.00 0.00 77 1010.3
20260506130842 4 200 14.5 22.5 0.00 0.00 0.00 75 1010.2
20260506130325 4 9 14.5 22.5 0.00 0.00 0.00 75 1010.2
20260506125902 3 10 16.1 22.5 0.00 0.00 0.00 74 1010.3
20260506125324 3 19 8.0 22.5 0.00 0.00 0.00 77 1010.2
20260506124903 3 360 16.1 19.3 0.00 0.00 0.00 77 1010.2
20260506124325 3 360 12.9 24.1 0.00 0.00 0.00 79 1010.2
20260506123844 3 360 12.9 24.1 0.00 0.00 0.00 79 1010.2
20260506123326 3 360 11.3 22.5 0.00 0.00 0.00 80 1010.3
20260506122843 3 360 12.9 24.1 0.00 0.00 0.00 79 1010.5
20260506122327 3 360 16.1 24.1 0.00 0.00 0.00 78 1010.4
20260506121830 3 360 17.7 24.1 0.00 0.00 0.00 77 1010.4
20260506121354 3 360 14.5 24.1 0.00 0.00 0.00 77 1010.3
20260506120833 3 360 16.1 24.1 0.00 0.00 0.00 78 1010.3
20260506120338 3 360 11.3 24.1 0.00 0.00 0.00 77 1010.1
20260506115838 3 360 16.1 22.5 0.00 0.00 0.00 78 1009.9
20260506115342 3 19 12.9 24.1 0.00 0.00 0.00 79 1009.8
20260506114842 3 360 12.9 24.1 0.00 0.00 0.00 79 1009.7
20260506114327 3 17 14.5 20.9 0.00 0.00 0.00 79 1009.6
20260506113825 3 17 14.5 20.9 0.00 0.03 0.00 80 1009.5
20260506113330 3 360 14.5 20.9 0.00 0.03 0.00 80 1009.4
20260506112831 3 360 12.9 19.3 0.00 0.03 0.00 82 1009.1
20260506112355 3 360 14.5 19.3 0.00 0.03 0.00 81 1009.0
20260506111834 2 360 14.5 19.3 0.00 0.03 0.00 83 1009.1
20260506111337 2 360 11.3 16.1 0.00 0.03 0.00 83 1009.0
20260506110857 2 360 11.3 17.7 0.00 0.03 0.00 83 1008.9
20260506110345 2 360 9.7 19.3 0.00 0.03 0.00 83 1008.6
20260506105825 2 360 8.0 16.1 0.00 0.03 0.00 83 1008.6
20260506105350 2 360 9.7 17.7 0.00 0.03 0.00 83 1008.3
20260506104829 2 360 8.0 17.7 0.00 0.03 0.00 84 1008.3
20260506104354 2 360 9.7 17.7 0.00 0.03 0.00 84 1008.2
20260506103853 2 360 11.3 17.7 0.00 0.03 0.00 84 1008.1
20260506103335 2 360 8.0 14.5 0.00 0.03 0.00 84 1008.1
20260506102835 2 360 8.0 16.1 0.00 0.03 0.00 84 1008.1
20260506102338 2 360 11.3 16.1 0.00 0.03 0.00 84 1008.1
20260506101839 2 360 8.0 14.5 0.00 0.03 0.00 84 1008.1
20260506101343 2 360 6.4 12.9 0.00 0.03 0.00 84 1008.1
20260506100842 2 360 4.8 17.7 0.00 0.03 0.00 83 1008.1
20260506100325 2 360 9.7 17.7 0.00 0.03 0.00 83 1008.1
20260506095825 2 360 6.4 16.1 0.00 0.03 0.00 83 1008.1
20260506095330 2 360 6.4 20.9 0.00 0.03 0.00 83 1008.2
20260506094835 2 360 9.7 20.9 0.00 0.03 0.00 83 1008.2
20260506094339 2 360 8.0 16.1 0.00 0.03 0.00 82 1008.2
20260506093839 2 360 8.0 17.7 0.00 0.03 0.00 82 1008.1
20260506093325 2 360 9.7 17.7 0.00 0.03 0.00 82 1008.1
20260506092824 2 360 6.4 17.7 0.00 0.03 0.00 81 1008.1
20260506092330 2 360 8.0 17.7 0.00 0.03 0.00 81 1008.2
20260506091831 2 360 8.0 19.3 0.00 0.03 0.00 81 1008.2
20260506091354 2 360 11.3 19.3 0.00 0.03 0.00 81 1008.2
20260506090831 2 360 8.0 19.3 0.00 0.03 0.00 82 1008.2
20260506090335 2 360 8.0 20.9 0.00 0.03 0.00 82 1008.2
20260506085854 2 360 9.7 20.9 0.00 0.03 0.00 82 1008.2
20260506085337 2 360 8.0 12.9 0.00 0.03 0.00 83 1008.1
20260506084836 2 360 6.4 14.5 0.00 0.03 0.00 83 1008.3
20260506084400 2 360 6.4 17.7 0.00 0.03 0.00 83 1008.4
20260506083859 2 360 8.0 20.9 0.00 0.03 0.00 83 1008.6
20260506083341 2 360 11.3 20.9 0.00 0.03 0.00 83 1008.7
20260506082901 2 360 6.4 16.1 0.00 0.03 0.00 84 1008.5
20260506082329 2 360 4.8 17.7 0.00 0.03 0.00 84 1008.3
20260506081830 2 360 9.7 17.7 0.00 0.03 0.00 84 1008.4
20260506081354 2 360 6.4 16.1 0.00 0.03 0.00 84 1008.4
20260506080834 2 360 9.7 16.1 0.00 0.03 0.00 84 1008.4
20260506080339 2 360 6.4 19.3 0.00 0.03 0.00 83 1008.2
20260506073326 3 360 9.7 19.3 0.00 0.03 0.00 81 1008.1
20260506072845 3 360 12.9 19.3 0.00 0.03 0.00 80 1008.1
20260506072328 3 360 11.3 17.7 0.00 0.03 0.00 79 1008.3
20260506071828 3 360 9.7 17.7 0.00 0.03 0.00 79 1008.3
20260506071337 3 360 9.7 20.9 0.00 0.03 0.00 78 1008.0
20260506070836 4 360 16.1 22.5 0.00 0.03 0.00 77 1007.8
20260506070340 4 360 14.5 22.5 0.00 0.03 0.00 77 1007.7
20260506062354 5 360 0.0 1.6 0.00 0.03 0.00 80 1007.7
20260506061832 5 360 0.0 1.6 0.00 0.03 0.00 80 1007.6
20260506061335 5 360 0.0 1.6 0.00 0.03 0.00 80 1007.7
20260506060838 5 360 0.0 1.6 0.00 0.03 0.00 81 1007.5
20260506060342 5 360 0.0 3.2 0.00 0.03 0.00 81 1007.8
20260506051329 5 360 0.0 3.2 0.00 0.10 0.00 84 1008.2
20260506050828 4 360 1.6 3.2 0.00 0.10 0.00 84 1008.1
20260506050335 4 360 0.0 1.6 0.00 0.10 0.00 85 1008.1
20260506044835 4 360 0.0 1.6 0.00 0.10 0.00 84 1008.1
20260506044358 4 360 0.0 1.6 0.00 0.10 0.00 84 1008.0
20260506043836 4 360 0.0 1.6 0.00 0.10 0.10 84 1007.9
20260506043339 4 360 0.0 1.6 0.00 0.10 0.10 84 1008.0
20260506042836 4 360 0.0 1.6 0.00 0.10 0.10 84 1008.0
20260506042340 4 360 0.0 3.2 0.00 0.10 0.10 84 1007.9
20260506041839 4 360 1.6 3.2 0.00 0.10 0.10 84 1007.9
20260506041342 4 360 0.0 3.2 0.00 0.10 0.10 84 1008.0
20260506040836 4 360 0.0 3.2 0.00 0.10 0.10 83 1008.0
20260506040341 4 360 1.6 3.2 0.00 0.10 0.10 83 1007.8
20260506035858 4 360 0.0 3.2 0.00 0.10 0.10 83 1007.9
20260506035341 4 360 0.0 4.8 0.00 0.10 0.10 82 1008.0
20260506034838 4 360 1.6 4.8 0.00 0.10 0.10 82 1007.9
20260506034328 4 360 1.6 4.8 0.00 0.10 0.10 81 1007.7
20260506033828 5 360 1.6 4.8 0.00 0.10 0.10 80 1007.9
20260506033331 5 360 0.0 0.0 0.00 0.10 0.10 79 1008.0
20260506032830 5 360 0.0 1.6 0.00 0.10 0.10 78 1008.0
20260506032333 5 360 0.0 3.2 0.00 0.10 0.10 78 1007.9
20260506031835 5 360 0.0 3.2 0.00 0.10 0.10 77 1007.9
20260506031338 5 360 0.0 1.6 0.00 0.10 0.10 77 1007.9
20260506030838 5 360 0.0 1.6 0.00 0.10 0.10 77 1007.9
20260506030341 5 360 0.0 1.6 0.00 0.10 0.10 76 1007.9
20260506025841 5 360 0.0 1.6 0.00 0.10 0.10 76 1007.8
20260506025404 5 360 0.0 1.6 0.00 0.10 0.10 75 1007.9
20260506024902 6 360 0.0 1.6 0.00 0.10 0.10 74 1007.9
20260506024324 6 360 0.0 1.6 0.00 0.10 0.10 74 1007.8
20260506023830 6 360 0.0 1.6 0.00 0.10 0.10 74 1007.8
20260506023333 6 360 0.0 1.6 0.00 0.10 0.10 73 1007.8
20260506022832 6 360 0.0 1.6 0.00 0.10 0.10 73 1007.8
20260506022336 6 360 0.0 1.6 0.00 0.10 0.10 72 1007.9
20260506021835 6 360 0.0 1.6 0.00 0.10 0.10 72 1007.8
20260506021340 6 360 0.0 1.6 0.00 0.10 0.10 72 1007.8
20260506020859 6 360 0.0 1.6 0.00 0.10 0.10 71 1007.8
20260506020341 6 360 0.0 3.2 0.00 0.10 0.10 71 1007.8
20260506015840 6 360 0.0 3.2 0.00 0.10 0.10 71 1007.8
20260506015343 6 360 1.6 4.8 0.00 0.10 0.10 71 1007.9
20260506014902 6 360 1.6 4.8 0.00 0.10 0.10 70 1007.8
20260506014325 6 360 1.6 3.2 0.00 0.10 0.10 71 1007.8
20260506013824 6 360 0.0 3.2 0.00 0.10 0.10 70 1007.7
20260506013328 6 360 0.0 3.2 0.00 0.10 0.10 69 1007.6
20260506012829 6 360 0.0 3.2 0.00 0.10 0.10 70 1007.5
20260506012333 6 360 0.0 3.2 0.00 0.10 0.10 70 1007.4
20260506011833 6 360 0.0 1.6 0.00 0.10 0.10 70 1007.3
20260506011356 6 360 0.0 1.6 0.00 0.10 0.10 70 1007.3
20260506010834 5 360 0.0 3.2 0.00 0.10 0.10 71 1007.3
20260506010336 5 360 0.0 3.2 0.00 0.10 0.10 71 1007.1
20260506005836 5 360 0.0 0.0 0.00 0.10 0.10 71 1007.1
20260506005359 5 360 0.0 1.6 0.00 0.10 0.10 71 1007.1
20260506004839 5 360 0.0 1.6 0.00 0.10 0.10 70 1006.9
20260506004324 5 360 0.0 3.2 0.00 0.10 0.10 70 1006.8
20260506003843 6 360 0.0 1.6 0.00 0.10 0.10 70 1006.9
20260506003327 6 360 0.0 3.2 0.00 0.10 0.10 69 1006.9
20260506002828 6 360 0.0 3.2 0.00 0.10 0.10 68 1006.8
20260506002332 6 140 0.0 3.2 0.00 0.10 0.10 68 1006.8
20260506001831 6 145 1.6 3.2 0.00 0.10 0.10 67 1006.9
20260506001338 6 171 0.0 3.2 0.00 0.10 0.10 66 1006.8
20260506000836 6 142 0.0 3.2 0.00 0.10 0.10 67 1006.7
20260506000340 6 190 1.6 3.2 0.00 0.10 0.10 66 1006.7
20260505235839 6 135 0.0 4.8 0.00 0.10 0.10 68 1006.6
20260505235324 6 194 1.6 4.8 0.00 0.10 0.10 66 1006.6
20260505234904 6 174 1.6 3.2 0.00 0.10 0.10 65 1006.6
20260505234347 7 117 1.6 3.2 0.00 0.10 0.10 64 1006.5
20260505233825 7 360 0.0 4.8 0.00 0.10 0.10 67 1006.5
20260505233330 7 22 1.6 6.4 0.00 0.10 0.10 65 1006.6
20260505232830 7 9 4.8 6.4 0.00 0.10 0.10 66 1006.7
20260505232333 7 18 1.6 4.8 0.00 0.10 0.10 67 1006.7
20260505231853 7 360 1.6 6.4 0.00 0.10 0.10 69 1006.7
20260505231357 7 5 3.2 6.4 0.00 0.10 0.10 69 1006.6
20260505230836 7 236 1.6 6.4 0.00 0.10 0.10 69 1006.7
20260505230340 7 9 3.2 8.0 0.00 0.10 0.10 67 1006.8
20260505225825 7 14 4.8 9.7 0.00 0.10 0.10 67 1006.9
20260505225329 7 11 4.8 12.9 0.00 0.10 0.10 67 1006.9
20260505224829 8 16 6.4 11.3 0.00 0.10 0.10 67 1006.8
20260505224333 8 11 4.8 6.4 0.00 0.10 0.10 66 1006.8
20260505223834 8 21 4.8 9.7 0.00 0.10 0.10 64 1006.9
20260505223337 8 22 3.2 9.7 0.00 0.10 0.10 65 1006.9
20260505222837 8 14 3.2 9.7 0.00 0.10 0.10 68 1006.9
20260505222341 8 16 4.8 12.9 0.00 0.10 0.10 66 1006.8
20260505221901 8 5 6.4 12.9 0.00 0.10 0.10 64 1006.8
20260505221324 8 9 6.4 14.5 0.00 0.10 0.10 65 1006.9
20260505220824 8 360 4.8 14.5 0.00 0.10 0.10 65 1007.0
20260505220329 8 9 4.8 12.9 0.00 0.10 0.10 66 1007.1
20260505215830 8 360 4.8 16.1 0.00 0.10 0.10 66 1006.9
20260505215338 8 5 8.0 16.1 0.00 0.10 0.10 65 1006.8
20260505214835 8 17 8.0 14.5 0.00 0.10 0.10 63 1006.9
20260505214338 8 9 4.8 14.5 0.00 0.10 0.10 66 1006.9
20260505213852 8 26 8.0 14.5 0.00 0.10 0.10 67 1006.9
20260505213355 8 9 6.4 16.1 0.00 0.10 0.10 67 1006.7
20260505212832 8 15 9.7 16.1 0.00 0.10 0.10 66 1006.9
20260505212331 8 9 9.7 19.3 0.00 0.10 0.10 67 1006.8
20260505211902 8 9 12.9 19.3 0.00 0.10 0.10 65 1006.8
20260505211336 8 14 14.5 17.7 0.00 0.10 0.10 64 1006.9
20260505210854 8 5 12.9 17.7 0.00 0.10 0.10 64 1006.8
20260505210337 9 15 11.3 16.1 0.00 0.10 0.10 64 1006.7
20260505205837 8 251 8.0 14.5 0.00 0.10 0.10 65 1006.6
20260505205401 9 9 4.8 14.5 0.00 0.10 0.10 66 1006.6
20260505204840 8 15 6.4 14.5 0.00 0.10 0.10 64 1006.6
20260505204345 9 232 8.0 14.5 0.00 0.10 0.10 64 1006.6
20260505203824 9 227 9.7 16.1 0.00 0.10 0.10 65 1006.5
20260505203327 9 229 9.7 16.1 0.00 0.10 0.10 64 1006.4
20260505202827 10 5 9.7 16.1 0.00 0.10 0.10 63 1006.4
20260505202331 10 360 11.3 14.5 0.00 0.10 0.10 63 1006.4
20260505201832 10 227 6.4 16.1 0.00 0.10 0.10 64 1006.5
20260505201340 10 213 12.9 17.7 0.00 0.10 0.10 61 1006.4
20260505200839 10 225 11.3 16.1 0.00 0.10 0.10 61 1006.3
20260505200400 11 205 9.7 16.1 0.00 0.10 0.10 63 1006.5
20260505195837 11 161 14.5 17.7 0.00 0.10 0.10 63 1006.4
20260505195340 11 147 9.7 14.5 0.00 0.10 0.10 64 1006.3
20260505194839 11 360 11.3 14.5 0.00 0.10 0.10 60 1006.2
20260505194342 11 200 9.7 16.1 0.00 0.10 0.10 60 1006.2
20260505193841 11 162 8.0 16.1 0.00 0.10 0.10 61 1006.2
20260505193342 11 179 4.8 19.3 0.00 0.10 0.10 57 1006.0
20260505192841 11 185 8.0 20.9 0.00 0.10 0.10 58 1006.0
20260505192404 11 179 6.4 20.9 0.00 0.10 0.10 60 1005.9
20260505191841 11 134 8.0 16.1 0.00 0.10 0.10 59 1005.9
20260505191324 11 183 9.7 16.1 0.00 0.10 0.10 58 1006.0
20260505190824 11 196 6.4 14.5 0.00 0.10 0.10 58 1006.1
20260505190328 11 192 6.4 14.5 0.00 0.10 0.10 56 1006.0
20260505185848 11 173 4.8 12.9 0.00 0.10 0.10 57 1006.0
20260505185351 11 220 4.8 9.7 0.00 0.10 0.10 61 1006.1
20260505184831 11 202 3.2 11.3 0.00 0.10 0.10 60 1006.2
20260505184338 11 132 3.2 4.8 0.00 0.10 0.10 60 1006.2
20260505183834 11 180 1.6 6.4 0.00 0.10 0.10 66 1006.0
20260505183337 11 102 4.8 8.0 0.00 0.10 0.10 61 1005.9
20260505182836 11 88 3.2 8.0 0.00 0.10 0.10 61 1006.0
20260505182338 10 162 1.6 4.8 0.00 0.10 0.10 61 1006.1
20260505181838 10 87 1.6 8.0 0.00 0.10 0.10 61 1006.0
20260505181342 10 176 3.2 14.5 0.00 0.10 0.10 63 1006.1
20260505180917 9 254 1.6 8.0 0.00 0.10 0.10 63 1006.0
20260505180343 9 219 4.8 8.0 0.00 0.10 0.10 65 1005.9
20260505175840 9 219 4.8 9.7 0.00 0.10 0.10 69 1006.0
20260505175325 9 245 4.8 9.7 0.00 0.10 0.10 66 1006.1
20260505174826 8 100 1.6 14.5 0.00 0.10 0.10 67 1006.0
20260505174330 8 9 4.8 12.9 0.00 0.10 0.10 71 1005.9
20260505173831 8 197 6.4 16.1 0.00 0.10 0.10 72 1005.9
20260505173339 8 5 6.4 16.1 0.00 0.10 0.10 70 1005.8
20260505172838 8 222 9.7 16.1 0.00 0.10 0.10 71 1005.9
20260505172403 8 182 8.0 14.5 0.00 0.10 0.10 71 1005.8
20260505171843 8 360 9.7 14.5 0.00 0.10 0.10 72 1005.9
20260505171347 8 192 8.0 16.1 0.00 0.10 0.10 73 1005.8
20260505170826 8 9 11.3 16.1 0.00 0.10 0.10 73 1005.7
20260505170330 7 15 11.3 16.1 0.00 0.10 0.10 73 1005.9
20260505165830 7 204 11.3 16.1 0.00 0.10 0.10 74 1006.0
20260505165355 7 237 8.0 14.5 0.00 0.10 0.10 76 1005.8
20260505164853 7 220 6.4 14.5 0.00 0.10 0.10 77 1005.7
20260505164336 6 237 9.7 14.5 0.00 0.10 0.10 76 1005.8
20260505163835 6 207 6.4 14.5 0.00 0.10 0.10 77 1005.9
20260505163340 6 239 8.0 14.5 0.00 0.10 0.10 77 1006.0
20260505162900 6 10 8.0 12.9 0.00 0.10 0.10 78 1005.9
20260505162341 6 12 8.0 12.9 0.00 0.10 0.10 76 1005.8
20260505161901 6 252 8.0 14.5 0.00 0.10 0.10 77 1005.7
20260505161324 6 15 8.0 12.9 0.00 0.10 0.10 78 1005.8